Tracking 19817 objects as of 18-Aug-2019
HD Live streaming from Space Station
objects crossing your sky now

COSMOS 1247

Track COSMOS 1247 now!
COSMOS 1247 is classified as:


NORAD ID: 12303
Int'l Code: 1981-016A
Perigee: 3,200.5 km
Apogee: 36,838.1 km
Inclination: 66.6 °
Period: 711.1 minutes
Semi major axis: 26390 km
RCS: 8.0719 m2 (large)
Launch date: February 19, 1981
Source: Commonwealth of Independent States (former USSR) (CIS)
Launch site: PLESETSK MISSILE AND SPACE COMPLEX (PKMTR)
aabbcc
Your satellite tracking list
Your tracking list is empty




NASA's NSSDC Master Catalog

Two Line Element Set (TLE):
1 12303U 81016A   19227.32688915 -.00000734 +00000-0 +00000-0 0  9993
2 12303 066.5624 197.4040 6373088 035.8830 353.4125 02.02505381284594
Source of the keplerian elements: AFSPC